Location: Unspecified
(51.0950°N, 12.9690°E)
Time: 14:32:46
(UTC+00:00)

Iridium 4 Rocket - Pass Details

Date: 28 October 2021
Orbit: 585 x 903 km, 86.9° (Epoch: 26 November)

Event Time Altitude Azimuth Distance (km) Brightness Sun altitude
Rises 17:23:32 0° 352° (N) 3,034 6.7 -15.3°
Reaches altitude 10° 17:25:46 10° 347° (NNW) 2,160 6.0 -15.7°
Maximum altitude 17:30:24 52° 273° (W) 921 4.3 -16.4°
Drops below altitude 10° 17:35:28 10° 198° (SSW) 2,345 6.2 -17.2°
Sets 17:37:58 0° 193° (SSW) 3,320 7.0 -17.6°
